Regional Weather Roundup
Issued by NWS

Home | Current Version | Previous Version | Text Only | Print | Product List | Glossary Off
Versions: 1 2 3 4 5 6 7 8 9 10 11 12 13 14 15 16 17 18 19 20 21 22 23 24 25 26 27 28 29 30 31 32 33 34 35 36 37 38 39 40 41 42 43 44 45 46 47 48 49 50

579
ASUS43 KBIS 060810
RWRND

NORTH DAKOTA REGIONAL WEATHER ROUNDUP
NATIONAL WEATHER SERVICE BISMARCK ND
300 AM CDT FRI MAY 06 2016

NOTE: "FAIR" INDICATES FEW OR NO CLOUDS BELOW 12,000 FEET WITH NO
SIGNIFICANT WEATHER AND/OR OBSTRUCTIONS TO VISIBILITY.


NDZ001>003-009>011-017-060900-
NORTHWEST NORTH DAKOTA

CITY           SKY/WX    TMP DP  RH WIND       PRES   REMARKS
WILLISTON      CLOUDY    62  42  47 NE7       29.83R
MINOT          PTCLDY    70  38  31 SW12      29.74S
MINOT AFB      MOCLDY    63  42  45 W12       29.73R
$$

NDZ018>021-031>035-040>046-060900-
SOUTHWEST NORTH DAKOTA

CITY           SKY/WX    TMP DP  RH WIND       PRES   REMARKS
BISMARCK       CLEAR     55  47  74 CALM      29.78S
DICKINSON      CLEAR     60  44  55 W6        29.80R
GARRISON         N/A     62  42  47 MISG      29.78R
HETTINGER ARPT PTCLDY    49  44  83 NW5       29.85S
$$

NDZ004>008-012>016-024-026-027-054-060900-
NORTHEAST NORTH DAKOTA

CITY           SKY/WX    TMP DP  RH WIND       PRES   REMARKS
GRAND FORKS    CLEAR     63  47  55 SW10      29.69F
GRND FRKS AFB  CLEAR     66  48  52 SW10      29.70F
DEVILS LAKE    CLEAR     64  44  48 SW10      29.72F
$$

NDZ022-023-025-028>030-036>039-047>053-060900-
SOUTHEAST NORTH DAKOTA

CITY           SKY/WX    TMP DP  RH WIND       PRES   REMARKS
FARGO          CLEAR     68  41  37 SW10      29.75F
JAMESTOWN      CLOUDY    57  48  72 S5        29.76F
$$





USA.gov is the U.S. government's official web portal to all federal, state and local government web resources and services.